DW0538 Weather Reports


time (UTC)temp
C
wind
direction
speed
KPH
gust
KPH
rain 1hr
cm
rain 24hr
cm
rain mn
cm
humidity
%
barometer
mb
20260504175311 21 271 1.6 30.6 0.00 0.00 0.00 37 1010.3
20260504174333 20 261 0.0 14.5 0.00 0.00 0.00 37 1010.4
20260504173330 20 271 1.6 27.4 0.00 0.00 0.00 38 1010.5
20260504172813 20 265 1.6 19.3 0.00 0.00 0.00 38 1010.6
20260504172323 20 307 0.0 19.3 0.00 0.00 0.00 39 1010.6
20260504171811 20 264 3.2 11.3 0.00 0.00 0.00 40 1010.7
20260504171327 20 223 1.6 17.7 0.00 0.00 0.00 38 1010.8
20260504170821 20 212 3.2 17.7 0.00 0.00 0.00 39 1010.8
20260504170329 20 276 1.6 16.1 0.00 0.00 0.00 40 1011.0
20260504150813 17 284 1.6 19.3 0.00 0.00 0.00 41 1012.2
20260504141319 15 298 0.0 1.6 0.00 0.00 0.00 49 1012.8
20260504130819 13 242 0.0 11.3 0.00 0.00 0.00 52 1013.2
20260504120313 10 287 0.0 6.4 0.00 0.00 0.00 59 1013.7
20260504110319 8 243 0.0 0.0 0.00 0.00 0.00 62 1013.7
20260504081809 7 243 0.0 0.0 0.00 0.00 0.00 61 1013.1
20260504081314 7 243 0.0 0.0 0.00 0.00 0.00 61 1013.2
20260504080825 8 243 0.0 0.0 0.00 0.00 0.00 60 1013.1
20260504080325 8 243 0.0 0.0 0.00 0.00 0.00 60 1013.0
20260504070317 8 255 0.0 3.2 0.00 0.00 0.00 61 1012.9
20260504050324 9 259 0.0 0.0 0.00 0.00 0.00 55 1012.5
20260504045826 9 259 0.0 0.0 0.00 0.00 0.00 55 1012.6
20260504045319 9 259 0.0 0.0 0.00 0.00 0.00 55 1012.6
20260504044820 9 259 0.0 0.0 0.00 0.00 0.00 54 1012.6
20260504044327 9 259 0.0 0.0 0.00 0.00 0.00 55 1012.6
20260504043809 9 273 0.0 0.0 0.00 0.00 0.00 55 1012.5
20260504042825 8 273 0.0 0.0 0.00 0.00 0.00 56 1012.4
20260504042323 8 273 0.0 0.0 0.00 0.00 0.00 55 1012.3
20260504041817 9 273 0.0 0.0 0.00 0.00 0.00 55 1012.2
20260504040823 9 273 0.0 0.0 0.00 0.00 0.00 54 1012.1
20260504040309 9 273 0.0 0.0 0.00 0.00 0.00 54 1012.0
20260504035815 9 273 0.0 0.0 0.00 0.00 0.00 54 1012.0
20260504035326 9 273 0.0 0.0 0.00 0.00 0.00 54 1012.0
20260504034829 9 273 0.0 0.0 0.00 0.00 0.00 54 1012.0
20260504034327 10 273 0.0 0.0 0.00 0.00 0.00 52 1012.0
20260504033330 10 273 0.0 0.0 0.00 0.00 0.00 51 1012.0
20260504032810 10 273 0.0 0.0 0.00 0.00 0.00 50 1012.1
20260504032320 10 273 0.0 0.0 0.00 0.00 0.00 50 1012.0
20260504031309 10 273 0.0 0.0 0.00 0.00 0.00 48 1012.0
20260504025826 10 273 0.0 0.0 0.00 0.00 0.00 47 1012.0
20260504024826 11 292 0.0 0.0 0.00 0.00 0.00 47 1012.0
20260504024314 11 292 0.0 3.2 0.00 0.00 0.00 46 1011.9
20260504023814 11 292 0.0 0.0 0.00 0.00 0.00 46 1011.9
20260504022824 11 292 0.0 0.0 0.00 0.00 0.00 45 1012.0
20260504022314 11 292 0.0 0.0 0.00 0.00 0.00 46 1012.0
20260504021827 11 292 0.0 0.0 0.00 0.00 0.00 45 1012.0
20260504021321 11 292 0.0 0.0 0.00 0.00 0.00 44 1012.0
20260504020809 11 292 0.0 0.0 0.00 0.00 0.00 44 1012.0
20260504020327 11 292 0.0 3.2 0.00 0.00 0.00 44 1012.0
20260504015813 11 292 0.0 3.2 0.00 0.00 0.00 43 1012.0
20260504014819 11 303 0.0 0.0 0.00 0.00 0.00 43 1012.0
20260504014331 11 302 0.0 0.0 0.00 0.00 0.00 43 1011.8
20260504012315 12 302 0.0 0.0 0.00 0.00 0.00 43 1011.6
20260504011809 12 302 0.0 0.0 0.00 0.00 0.00 43 1011.7
20260504011313 12 302 0.0 0.0 0.00 0.00 0.00 42 1011.6
20260504010825 12 302 0.0 0.0 0.00 0.00 0.00 42 1011.6
20260504010322 13 302 0.0 0.0 0.00 0.00 0.00 39 1011.6
20260504005330 13 302 0.0 0.0 0.00 0.00 0.00 37 1011.4
20260504004815 13 302 0.0 0.0 0.00 0.00 0.00 36 1011.3
20260504004329 13 302 0.0 0.0 0.00 0.00 0.00 36 1011.3
20260504003311 13 302 0.0 0.0 0.00 0.00 0.00 35 1011.0
20260504002819 13 302 0.0 0.0 0.00 0.00 0.00 35 1011.1
20260504001809 14 302 0.0 0.0 0.00 0.00 0.00 35 1011.0
20260504001326 14 302 0.0 0.0 0.00 0.00 0.00 34 1010.9
20260504000819 14 302 0.0 0.0 0.00 0.00 0.00 35 1010.7
20260504000320 14 296 0.0 0.0 0.00 0.00 0.00 34 1010.7
20260503235312 14 298 0.0 0.0 0.00 0.00 0.00 33 1010.5
20260503233811 15 298 0.0 0.0 0.00 0.00 0.00 33 1010.4
20260503233310 15 293 0.0 0.0 0.00 0.00 0.00 32 1010.4
20260503232820 15 302 0.0 1.6 0.00 0.00 0.00 32 1010.3
20260503232315 15 302 0.0 4.8 0.00 0.00 0.00 32 1010.3
20260503231324 15 322 0.0 3.2 0.00 0.00 0.00 31 1010.3
20260503230811 15 334 0.0 6.4 0.00 0.00 0.00 31 1010.2
20260503230331 15 339 0.0 6.4 0.00 0.00 0.00 31 1010.2
20260503225320 15 329 0.0 12.9 0.00 0.00 0.00 30 1010.1
20260503224329 16 324 0.0 9.7 0.00 0.00 0.00 29 1009.9
20260503223815 16 306 1.6 6.4 0.00 0.00 0.00 29 1010.0
20260503223326 16 343 0.0 0.0 0.00 0.00 0.00 29 1010.0
20260503222821 16 360 0.0 12.9 0.00 0.00 0.00 32 1009.9
20260503222315 16 360 0.0 14.5 0.00 0.00 0.00 30 1010.1
20260503221827 16 19 8.0 14.5 0.00 0.00 0.00 29 1009.9
20260503220812 16 16 1.6 12.9 0.00 0.00 0.00 28 1010.0
20260503220329 16 15 0.0 11.3 0.00 0.00 0.00 29 1010.0
20260503215310 16 302 0.0 14.5 0.00 0.00 0.00 29 1009.9
20260503214827 16 344 1.6 9.7 0.00 0.00 0.00 29 1010.0
20260503214323 15 355 0.0 19.3 0.00 0.00 0.00 28 1010.1
20260503213815 15 291 1.6 19.3 0.00 0.00 0.00 30 1010.0
20260503213330 15 339 3.2 22.5 0.00 0.00 0.00 29 1010.1
20260503212832 15 343 1.6 24.1 0.00 0.00 0.00 28 1010.0
20260503210813 15 328 3.2 19.3 0.00 0.00 0.00 28 1009.9
20260503210329 15 313 9.7 19.3 0.00 0.00 0.00 28 1009.9
20260503205308 15 307 4.8 22.5 0.00 0.00 0.00 30 1009.9
20260503204813 15 336 0.0 0.0 0.00 0.00 0.00 30 1009.9
20260503204330 15 261 1.6 29.0 0.00 0.00 0.00 30 1010.0
20260503203814 15 63 9.7 16.1 0.00 0.00 0.00 29 1010.0
20260503203309 15 304 4.8 17.7 0.00 0.00 0.00 31 1010.0
20260503202822 15 319 0.0 19.3 0.00 0.00 0.00 30 1010.1
20260503202309 15 298 4.8 25.7 0.00 0.00 0.00 30 1010.1
20260503201319 15 355 1.6 12.9 0.00 0.00 0.00 33 1010.2
20260503200831 14 332 0.0 17.7 0.00 0.00 0.00 32 1010.3
20260503200315 13 254 3.2 20.9 0.00 0.00 0.00 33 1010.3
20260503195818 13 281 3.2 22.5 0.00 0.00 0.00 32 1010.5
20260503195332 14 318 4.8 22.5 0.00 0.00 0.00 31 1010.6
20260503194834 14 344 0.0 0.0 0.00 0.00 0.00 31 1010.6
20260503194324 14 315 1.6 30.6 0.00 0.00 0.00 33 1010.5
20260503193826 14 315 4.8 30.6 0.00 0.00 0.00 32 1010.6
20260503190814 13 5 4.8 22.5 0.00 0.00 0.00 32 1010.8
20260503185820 13 342 8.0 22.5 0.00 0.00 0.00 34 1011.0
20260503184827 13 271 9.7 24.1 0.00 0.00 0.00 34 1011.1
20260503184317 13 321 4.8 20.9 0.00 0.00 0.00 36 1011.0
20260503183319 13 355 0.0 20.9 0.00 0.00 0.00 38 1011.0
20260503182829 13 360 4.8 22.5 0.00 0.00 0.00 35 1010.9
20260503182319 13 32 1.6 22.5 0.00 0.00 0.00 37 1010.9
20260503181811 12 325 0.0 17.7 0.00 0.00 0.00 37 1010.9
20260503180817 12 290 3.2 29.0 0.00 0.00 0.00 37 1011.2
20260503180315 12 355 4.8 20.9 0.00 0.00 0.00 39 1011.1
20260503175824 11 273 1.6 25.7 0.00 0.00 0.00 38 1011.1